This is the latest recevied weather packets stored in our database for station/object BMCB-1. If no packets are shown the sender has not sent any weather packets the latest 10 day(s).
| Time | Temp. | Humidity | Pressure | Rain* | Wind** | Luminosity | Snow |
|---|---|---|---|---|---|---|---|
| 1778044841 | 6.67° C | 98% | 1012.2 hPa | 1.78 mm | - | 12 W/m² | - |
| 1778043622 | 6.67° C | 98% | 1012.2 hPa | 1.52 mm | - | 6 W/m² | - |
| 1778039417 | 7.22° C | 98% | 1012 hPa | 0.51 mm | - | 0 W/m² | - |
| 1778036422 | 7.78° C | 97% | 1012.1 hPa | 0.76 mm | - | 0 W/m² | - |
| 1778030421 | 8.33° C | 97% | 1012.3 hPa | 1.52 mm | - | 0 W/m² | - |
| 1778028021 | 8.33° C | 97% | 1012.4 hPa | 0.76 mm | - | 0 W/m² | - |
| 1778025023 | 8.33° C | 97% | 1012.7 hPa | 0.76 mm | - | 0 W/m² | - |
| 1778023834 | 8.89° C | 98% | 1012.7 hPa | 1.02 mm | - | 0 W/m² | - |
| 1778023222 | 8.89° C | 98% | 1012.8 hPa | 0.76 mm | - | 0 W/m² | - |
| 1778022028 | 8.89° C | 98% | 1012.9 hPa | 0.76 mm | - | 0 W/m² | - |
| 1778020841 | 8.89° C | 98% | 1012.9 hPa | 0.76 mm | - | 0 W/m² | - |
| 1778019045 | 8.89° C | 98% | 1012.9 hPa | 0.76 mm | - | 0 W/m² | - |
| 1778014238 | 8.89° C | 98% | 1013.3 hPa | 1.02 mm | - | 0 W/m² | - |
| 1778013051 | 8.89° C | 98% | 1013.3 hPa | 1.02 mm | - | 0 W/m² | - |
| 1778009435 | 8.89° C | 98% | 1012.9 hPa | 1.52 mm | - | 0 W/m² | - |
| 1778007022 | 9.44° C | 98% | 1012.8 hPa | 2.29 mm | - | 2 W/m² | - |
| 1778001633 | 9.44° C | 99% | 1012.8 hPa | 0.76 mm | - | 24 W/m² | - |
| 1777998045 | 9.44° C | 99% | 1013 hPa | 0 mm | - | 36 W/m² | - |
| 1777997444 | 10° C | 99% | 1013 hPa | 0 mm | - | 42 W/m² | - |
| 1777995647 | 10° C | 99% | 1013 hPa | 0 mm | - | 50 W/m² | - |
| 1777993832 | 10° C | 99% | 1013.2 hPa | 0 mm | - | 66 W/m² | - |
| 1777989047 | 10.56° C | 98% | 1013.2 hPa | 0 mm | - | 104 W/m² | - |
| 1777988439 | 10.56° C | 98% | 1013.2 hPa | 0 mm | - | 120 W/m² | - |
| 1777987839 | 10.56° C | 98% | 1013.2 hPa | 0 mm | - | 122 W/m² | - |
| 1777980023 | 11.11° C | 98% | 1013.9 hPa | 0 mm | - | 172 W/m² | - |
* Rain latest hour (hover to see other rain measurements)
** Current wind speed in m/s (hover to see current wind gust speed)